Location: Axtheid
(49.6213°N, 11.8205°E)
Time: 13:11:12
(UTC+00:00)

Okean O Rocket - Pass Details

Date: 24 January 2021
Orbit: 622 x 645 km, 98.2° (Epoch: 25 February)

Event Time Altitude Azimuth Distance (km) Brightness Sun altitude
Rises 16:23:05 0° 155° (SSE) 2,941 5.0 -4.9°
Reaches altitude 10° 16:25:18 10° 152° (SSE) 2,033 4.2 -5.2°
Maximum altitude 16:29:41 64° 72° (ENE) 713 1.6 -5.9°
Drops below altitude 10° 16:34:04 10° 351° (N) 2,036 4.1 -6.5°
Sets 16:36:17 0° 349° (N) 2,946 4.9 -6.9°
